Back to catalog

STARLINK-5613

AliveCommunicationsVLEO
NORAD 55752·PAYLOAD·🇺🇸 United States

Launched Mar 3, 2023 from Vandenberg Space Force Base

Loading…

Next Passes (next 24 hours)

TLE

FreshSource: CelesTrak SupGP

Epoch: Sep 14, 2026, 20:44 UTC

1 55752C 23028M   26257.86437500 -.00028051  00000+0 -23510-2 0  2571
2 55752  70.0005 127.3456 0002560 271.9601 319.7768 14.98341199    16

Track STARLINK-5613 in real time with AllMySat

Download on the App Store